Voltar ao catálogo

THORAD DELTA 1 DEB

AtivoSSO
NORAD 8163·DEBRIS·🇺🇸 United States

Lançado Nov 15, 1974 de Vandenberg Space Force Base

Loading…

Próximas Passagens (próximas 24 horas)

TLE

AtualizadoSource: Space-Track

Época: Sep 14, 2026, 12:12 UTC

1 08163U 74089AD  26257.50853821  .00000316  00000-0  23267-2 0  9992
2 08163 102.4740 282.1423 0310760 256.1961 100.4342 12.39473958321750

Acompanhe THORAD DELTA 1 DEB em tempo real com AllMySat

Download on the App Store